RADCAL 1 22698U 93041A 12136.87636314 .00000180 00000-0 70612-4 0 2076 2 22698 89.5416 331.9106 0091948 83.9997 277.1666 14.22955984980529 STRV 1A 1 23125U 94034B 12134.81213556 .00008186 00000-0 12237-2 0 9917 2 23125 7.2411 220.8527 6791179 7.5891 358.9442 2.93254940170119 STRV 1B 1 23126U 94034C 12131.41463573 .00002644 00000-0 54626-3 0 640 2 23126 7.0777 150.5175 6726742 145.5396 286.6299 3.00970897172954 REX 2 1 23814U 96014A 12136.11710979 .00000133 00000-0 53071-4 0 5674 2 23814 90.1423 290.9916 0024791 74.6241 285.7686 14.24026121840807 COSMOS 2346 1 24953U 97052A 12136.81458955 .00000060 00000-0 43127-4 0 4301 2 24953 82.9206 239.5794 0041018 25.1032 335.2108 13.79471975737268 ARGOS 1 25634U 99008A 12136.60379310 -.00000153 00000-0 -51923-4 0 5911 2 25634 98.8576 197.5365 0010462 145.9142 214.2720 14.19014383684853 HELIOS 1B 1 25977U 99064A 12137.21536226 .00000706 00000-0 10399-3 0 6309 2 25977 98.2586 187.5510 0001724 120.5340 239.6040 14.78570799669097 MTI 1 26102U 00014A 12137.05575878 .00004012 00000-0 21085-3 0 9058 2 26102 97.3556 269.0265 0018716 25.7556 85.6421 15.16091556670256 STRV 1C 1 26610U 00072C 12136.60095598 .00000026 00000-0 00000+0 0 3552 2 26610 6.6648 290.0399 7327281 43.4096 355.1532 2.03465289 85472 MIDSTAR-1 1 30773U 07006B 12137.19410483 .00003112 00000-0 12482-3 0 4832 2 30773 46.0720 80.3621 0008303 188.6847 171.3908 15.27540379289143 CFESAT 1 30777U 07006F 12135.39469820 .00003446 00000-0 22945-3 0 3626 2 30777 35.4306 132.2606 0003962 47.5083 312.5968 15.06790013285050 NFIRE 1 31140U 07014A 12136.86770230 .00014017 00000-0 26256-3 0 7879 2 31140 48.2271 303.4282 0007343 337.5298 22.5320 15.48813305287314 SPIRALE A 1 33751U 09008C 12136.29142442 .00060027 -33318-6 15319-2 0 8830 2 33751 1.9105 120.2859 6700667 159.6649 251.6470 3.09952491 29273 SPIRALE B 1 33752U 09008D 12135.41587298 .00016620 00000-0 23386-2 0 7574 2 33752 1.6528 177.9448 7205285 47.9912 354.1592 2.39271912 27212 TACSAT 3 1 35001U 09028A 12121.72616188 .15204951 73582-5 42606-3 0 16 2 35001 40.4259 351.8840 0007146 275.2650 85.0693 16.45157000166990